sat.trackr.live / text

‹ back to catalog

STARLINK-37118

NORAD 68299 · 2026-057F

PAYLOAD ACTIVE UNKNOWN

§ Identity

Operator
Country
US
Launch date
2026-03-20
Launch site
AFWTR
Launch vehicle
Mass (kg)
RCS (m²)

Purposes: comms

External: N2YO · Heavens-Above · Gunter

§ Orbital elements

Epoch: 2026-05-25T02:19:22.598112Z

Period
91.41 min
Inclination
97.2845°
Eccentricity
0.0001628
Mean motion
15.75259224 rev/d
Perigee alt
342.8 km
Apogee alt
345.0 km
Semi-major
6,722.0 km
B*
1.3573e-3
RAAN
271.3472°
Arg perigee
59.6501°
Mean anomaly
300.4925°
Rev number
1,031

§ Raw data

STARLINK-371181 68299U 26057F   26145.09678933  .00207943  00000+0  13573-2 0  99922 68299  97.2845 271.3472 0001628  59.6501 300.4925 15.75259224 10310

JSON: /api/v1/satellites/68299 · /tle

For live sub-satellite position, see the globe view (requires WebGL).

§ Visibility from observer

Set your observer location to see the next 7 days of passes ≥ 10°. The values pass through the URL so the page stays shareable.

No JS? Fill the form by hand. The geolocation button needs JavaScript.